Weather past 2 weeks in Saipan, Northern Mariana Islands

Now
80 °F

Scattered clouds.


Feels Like: 85 °F
Forecast: 75 / 82 °F
Wind: 13 mph from East

Location: Saipan International Airport

Current Time: Dec 28, 2014 at 9:35:21 AM

Latest Report: Dec 28, 2014 at 8:54 AM


Visibility: 10 mi

Pressure: 29.97 "Hg

Humidity: 87%

Dew point: 76 °F

Location of SaipanLocation

Historic Weather in Saipan — Graph

°F

Saipan temperature yesterday

Maximum temperature yesterday: 87 °F (at 11:54 AM)
Minimum temperature yesterday: 77 °F (at 8:54 PM)
Average temperature yesterday: 81 °F

Past Weeks' High & Low Weather Summary

 TemperatureHumidityPressure
High88 °F (Dec 13, 12:54 PM)100% (Dec 14, 7:18 PM)30.07 "Hg (Dec 14, 7:18 PM)
Low75 °F (Dec 14, 7:18 PM)59% (Dec 19, 12:54 PM)29.82 "Hg (Dec 26, 2:35 PM)
Average82 °F78%29.96 "Hg
* Reported Dec 13 7:54 AM — Dec 28 7:54 AM, Saipan, Weather by CustomWeather, © 2014

Note: Actual official high and low records may vary slightly from our data, if they occured in-between our weather recording intervals... More about our weather records

Advertising

Saipan weather history for previous 24 hours

 ConditionsComfort  
Time TempWeatherWind HumidityBarometerVisibility
7:54 AM
Dec 28
80 °FScattered clouds.17 mph87%29.95 "Hg10 mi
6:54 AM78 °FSunny.22 mph87%29.93 "Hg10 mi
5:54 AM78 °FLight rain. Mostly cloudy.14 mph90%29.91 "Hg8 mi
4:54 AM79 °FPartly cloudy.15 mph84%29.90 "Hg10 mi
3:54 AM79 °FOvercast.13 mph88%29.89 "Hg10 mi
2:54 AM79 °FPassing clouds.12 mph84%29.90 "Hg10 mi
1:54 AM79 °FPartly cloudy.12 mph88%29.91 "Hg10 mi
12:54 AM78 °FPassing clouds.6 mph90%29.93 "Hg10 mi
11:54 PM
Dec 27
78 °FLight rain. Mostly cloudy.13 mph90%29.94 "Hg10 mi
10:54 PM79 °FPassing clouds.10 mph88%29.95 "Hg10 mi
9:54 PM78 °FLight rain. Mostly cloudy.7 mph90%29.96 "Hg8 mi
9:22 PM79 °FLight rain. Mostly cloudy.6 mph89%29.90 "Hg8 mi
8:54 PM77 °FLight rain. Overcast.9 mph90%29.96 "Hg9 mi
7:54 PM81 °FPassing clouds.16 mph79%29.93 "Hg10 mi
6:54 PM81 °FPassing clouds.12 mph77%29.92 "Hg10 mi
5:54 PM81 °FPassing clouds.14 mph74%29.91 "Hg10 mi
4:54 PM83 °FScattered clouds.22 mph72%29.89 "Hg10 mi
3:54 PM83 °FScattered clouds.18 mph72%29.87 "Hg10 mi
2:54 PM86 °FScattered clouds.21 mph65%29.87 "Hg10 mi
1:54 PM87 °FScattered clouds.18 mph65%29.88 "Hg10 mi
12:54 PM86 °FPassing clouds.20 mph67%29.91 "Hg10 mi
11:54 AM87 °FScattered clouds.23 mph65%29.93 "Hg10 mi
10:54 AM86 °FScattered clouds.22 mph65%29.96 "Hg10 mi
9:54 AM85 °FMore clouds than sun.21 mph70%29.97 "Hg10 mi
Weather by CustomWeather, © 2014

See weather overviewHow to use our weather pages